Location: Lecco
(45.8566°N, 9.3977°E)
Time: 11:50:08
(UTC+02:00)

Explorer 11/Cluster Stage 4 - Pass Details

Date: 23 August 2020
Orbit: 467 x 1258 km, 28.8° (Epoch: 24 September)

Event Time Altitude Azimuth Distance (km) Brightness Sun altitude
Rises 22:13:49 0° 244° (WSW) 3,510 10.2 -18.8°
Reaches altitude 10° 22:18:13 10° 215° (SW) 2,766 9.3 -19.4°
Maximum altitude 22:20:38 12° 194° (SSW) 2,712 9.1 -19.7°
Enters shadow 22:21:36 12° 186° (S) 2,770 9.0 -19.8°
Drops below altitude 10° 22:23:11 10° 174° (S) 2,954 - -20.0°
Sets 22:28:20 0° 146° (SSE) 4,065 - -20.7°
